Location: Helion Bumpstead
(52.0500°N, 0.4000°E)
Time: 11:56:22
(UTC+00:00)

Cosmos 2369 Rocket - Pass Details

Date: 15 November 2025
Orbit: 826 x 853 km, 71.0° (Epoch: 10 December)

Event Time Altitude Azimuth Distance (km) Brightness Sun altitude
Exits shadow 05:23:26 17° 324° (NW) 2,053 3.8 -17.5°
Maximum altitude 05:27:57 70° 244° (WSW) 903 2.1 -16.8°
Drops below altitude 10° 05:33:36 10° 162° (SSE) 2,475 5.0 -15.9°
Sets 05:36:03 0° 160° (SSE) 3,408 5.8 -15.6°
